User: anonymous   Login
Location: Newark
(46.3567°N, 6.1428°E)
Time: 20:52:00
(UTC+00:00)
Language:

JY1SAT - Orbit

View from above orbital plane
View from above orbital plane
View from above satellite
View from above satellite

Ground track
Ground track

The orbit data is extracted from the following two-line orbital elements,

1 43803U 18099AX  19258.43787559 -.00000039  00000-0  17280-5 0  9994
2 43803  97.7365 329.2594 0016095  37.6903 322.5442 14.95313920 42689
Epoch (UTC): 15 September 2019 10:30:32
Eccentricity: 0.0016095
inclination: 97.7365°
perigee height: 570 km
apogee height: 592 km
right ascension of ascending node: 329.2594°
argument of perigee: 37.6903°
revolutions per day: 14.95313920
mean anomaly at epoch: 322.5442°
orbit number at epoch: 4268

The dashed part of the orbit path shows where the satellite is in the earth's shadow,  

DLR